Regional Weather Roundup
Issued by NWS Wakefield, VA

Home | Current Version | Previous Version | Text Only | Print | Product List | Glossary Off
Versions: 1 2 3 4 5 6 7 8 9 10 11 12 13 14 15 16 17 18 19 20 21 22 23 24 25 26 27 28 29 30 31 32 33 34 35 36 37 38 39 40 41 42 43 44 45 46 47 48 49 50

000
ASUS41 KAKQ 111514
RWRAKQ

REGIONAL WEATHER ROUNDUP
NATIONAL WEATHER SERVICE WAKEFIELD VA
1000 AM EST THU FEB 11 2016

Note: "fair" indicates few or no clouds below 12,000 feet with no
significant weather and/or obstructions to visibility. * = Denotes
station may not report precipitation (e.g., rain,snow,etc.),
thunder or fog.

VAZ042-051-052>054-056-111600-
NORTHERN VIRGINIA

CITY           SKY/WX    TMP DP  RH WIND       PRES   REMARKS
WASH NATIONAL  FAIR      24   1  36 NW18G25   30.14S WCI  10
DULLES         PTSUNNY   23   1  38 W18G30    30.13R WCI   9
FORT BELVOIR   PTSUNNY   24   1  36 NW10G24   30.15R WCI  14
QUANTICO       FAIR      27   3  35 NW17G28   30.17R WCI  14
FREDERICKSBRG* FAIR      25   3  38 W10G22    30.16R WCI  15
STAFFORD*      CLOUDY    25   0  33 W9        30.20R
WARRENTON      PTSUNNY   27   8  44 NW12G18   30.13R WCI  17
CULPEPER*      FAIR      24   2  38 NW12      30.15R WCI  13
MANASSAS*      PTSUNNY   23   5  46 NW15      30.14R WCI  10
LEESBURG*      PTSUNNY   27  10  50 W24G33    30.13S WCI  12
WINCHESTER     CLOUDY    21   1  42 W17G28    30.11R WCI   7
FRONT ROYAL*   PTSUNNY   23   1  39 W13G18    30.11R WCI  11
LURAY*         FAIR      21   1  42 W7        30.10S
$$

VAZ048-049-060>072-079>083-111600-
CENTRAL AND SOUTH CENTRAL VIRGINIA

CITY           SKY/WX    TMP DP  RH WIND       PRES   REMARKS
RICHMOND       FAIR      25   2  37 W10       30.17R WCI  15
CHESTERFIELD*  FAIR      27  -2  28 W13       30.18R WCI  16
PETERSBURG*    FAIR      29  -3  25 W12       30.18S WCI  19
HANOVER        FAIR      26   1  34 W12G22    30.18S WCI  16
TAPPAHANNOCK*  FAIR      27   2  34 W8        30.16S
QUINTON*       FAIR      26   2  35 W14G20    30.16S WCI  15
CHARLOTTSVILLE FAIR      24  -1  33 VRB7      30.12S
GORDONSVILLE*  FAIR      24  -1  34 NW12G17   30.14S WCI  13
ORANGE*        FAIR      27   1  33 SW9       30.16R
LOUISA*        FAIR      27   1  33 W13G22    30.13S WCI  16
BUMPASS*       FAIR      24   1  35 W12G17    30.15S WCI  13
FARMVILLE*     FAIR      27   1  32 NW6       30.16R
CREWE*         FAIR      26   4  38 NW9G17    30.17R
FORT PICKETT*  FAIR      26   2  36 W9G18     30.17R
CHASE CITY*    FAIR      25   2  36 W9G17     30.17S
CLARKSVILLE*   FAIR      28   7  40 W10       30.18F WCI  19
SOUTH HILL*    FAIR      26   5  42 W10G20    30.24R WCI  16
LAWRENCEVILLE* FAIR      28   5  38 W6        30.18S
EMPORIA*       FAIR      28   5  37 SW12      30.20S WCI  18
$$

VAZ088>098-111600-
SOUTHEAST VIRGINIA

CITY           SKY/WX    TMP DP  RH WIND       PRES   REMARKS
NORFOLK        FAIR      28   4  35 MISG      30.16S
VIRGINIA BEACH FAIR      33   3  28 W21       30.15S WCI  21
NORFOLK NAVAL  FAIR      29   4  34 W20       30.17S WCI  16
WEST POINT*    FAIR      28   1  31 W13       30.18F WCI  17
SALUDA*        FAIR      27   3  35 W10       30.15S WCI  17
NEWPORT NEWS   FAIR      28   6  39 NW15G25   30.16S WCI  16
LANGLEY AFB    SUNNY     28   5  38 W18       30.15S WCI  15
FORT EUSTIS    FAIR      29   4  35 W18G25    30.15S WCI  16
WILLIAMSBURG*  FAIR      30   5  34 NW17G23   30.17S WCI  18
HR EXEC AP*    FAIR      28   7  40 W14       30.18S WCI  17
FRANKLIN*      FAIR      27   3  35 NW15G21   30.19S WCI  16
US460-WAKEFLD  FAIR      28   3  34 W7G17     30.18S
$$

VAZ020-022-025-037-045-111600-
WEST CENTRAL AND SOUTHWEST VIRGINIA

CITY           SKY/WX    TMP DP  RH WIND       PRES   REMARKS
STAUNTON*      FAIR      25   0  34 W14       30.11S WCI  13
WAYNESBORO*    FAIR      20  -4  35 W9G17     30.08R
HOT SPRINGS VA PTSUNNY    8  -1  69 W17G26    29.87R WCI -11
LYNCHBURG      FAIR      24   2  38 W8G17     30.15R
DANVILLE       FAIR      28   5  37 NW13G20   30.19R WCI  17
SOUTH BOSTON*  FAIR      27   3  35 W13G22    30.19S WCI  17
MARTINSVILLE   FAIR      24   3  39 N6        30.20R
ROANOKE        FAIR      22   2  42 NW18G26   30.16R WCI   7
BLACKSBURG     FAIR      18   7  62 W16G22    30.11R WCI   3
DUBLIN*        FAIR      20   7  56 W13G24    30.11R WCI   7
MARION*        FAIR      18   6  58 W21G28    30.09R WCI   2
HILLSVILLE*    FAIR      16   5  63 W14G23    30.04R WCI   1
RICHLANDS*     LGT SNOW  15   7  71 NW5       30.10S
WISE*          LGT SNOW  21   9  58 NW6       30.13R
ABINGDON*      CLOUDY    22  10  60 NW9       30.15R
$$

MDZ021>025-VAZ099-100-111600-
SOUTHERN MARYLAND AND THE DELMARVA PENINSULA

CITY           SKY/WX    TMP DP  RH WIND       PRES   REMARKS
PATUXENT RIVER PTSUNNY   25   1  35 NW18      30.14R WCI  11
BAY BRIDGE APT   N/A     27   3  36 NW22G30   30.11R WCI  12
LEONARDTOWN    MOSUNNY   27   1  33 MISG        N/A
DOVER          SUNNY     25   7  46 W21G28    30.05R WCI  11
GEORGETOWN     FLURRIES  25   4  40 W17G26    30.08R WCI  12
EASTON         MOSUNNY   27   5  39 NW18G28   30.13R WCI  13
CAMBRIDGE      SUNNY     25   3  39 W15G29    30.11S WCI  12
SALISBURY      PTSUNNY   27   3  35 W13G32    30.10R WCI  16
OCEAN CITY     MOSUNNY   27   4  37 NW16G32   30.09R WCI  15
WALLOPS ISLAND PTSUNNY   26   6  42 W24G33    30.11R WCI  11
ACCOMACK*      FAIR      28   5  37 NW20G25   30.13R WCI  15
$$

NCZ012>017-030>032-111600-
NORTH CENTRAL AND EASTERN NORTH CAROLINA

CITY           SKY/WX    TMP DP  RH WIND       PRES   REMARKS
ROANOKE RAPIDS FAIR      30   9  40 W12       30.20S WCI  21
RALEIGH        SUNNY     29   6  38 NW12G18   30.21R WCI  19
ELIZABETH CITY SUNNY     29   6  38 W22       30.18S WCI  15
AHOSKIE*       SUNNY     28   6  38 W3        30.20S
EDENTON*       SUNNY     32   7  35 NW14G23   30.19F WCI  22
CURRITUCK*     SUNNY     29   8  42 NW15G21   30.17S WCI  17
KILL DEVIL HLS SUNNY     30  10  43 W12G22    30.15R WCI  21
MANTEO         SUNNY     29  11  45 NW18G25   30.17S WCI  17
CAPE HATTERAS  SUNNY     32  11  41 NW18G31   30.17R WCI  20
TARBORO*       FAIR      31   8  36 W14G23    30.22S WCI  21
GOLDSBORO      SUNNY     32   5  32 W10       30.20S WCI  24
WASHINGTON     SUNNY     31   6  35 NW9G17    30.20S
GREENVILLE     SUNNY     32   5  32 NW9       30.23R
NEW BERN       SUNNY     33   7  33 NW15G23   30.23R WCI  23
WILMINGTON     SUNNY     34  10  37 W3        30.25R
$$

VAZ048-111600-
ELSEWHERE

CITY           SKY/WX    TMP DP  RH WIND       PRES   REMARKS
HARRISBURG PA  MOSUNNY   20   4  50 NW18      30.04R WCI   5
BALTIMORE      MOSUNNY   24   3  40 W18G32    30.10R WCI  10
ANNAPOLIS      PTSUNNY   24   5  44 W20G28    30.11S WCI  10
ANDREWS AFB    PTSUNNY   23   0  37 NW22G29   30.11R WCI   8
PHILADELPHIA   PTSUNNY   25   5  42 W28       30.03R WCI   9
HENDERSON NC   SUNNY     28   5  36 W7G20     30.18S
GREENSBORO     SUNNY     28   6  39 W10       30.18R WCI  19
ROCKY MOUNT    SUNNY     29   7  39 W12       30.21S WCI  19
$$

VAZ100-111600-
MARINE

STATION/POSITION TIME  TEMP    WIND        PRES    WAVE   SWELL
                       AIR SEA DIR/SP/G            HT/PER HT/PER
                 (UTC) (F)     (DEG/KT/KT) (MB)    (FT/S) (FT/S)
BRANDYWINE LGT   1400   24     300/ 29/ 35 1016.9R
CAPE MAY NJ      1400   25 38  300/ 24/ 32 1016.8R
LEWES DE         1400   25 39  300/ 23/ 29 1017.7R
15NM E FENWICK I 1350   26 43              1016.9    5/ 5
OCEAN-CITY-INLET 1400   26 41  300/ 14/ 20 1017.5R
WACHAPREAGUE VA  1400   28 39  280/  5/ 11 1020.1R
GOOSES REEF MD   1500   25 38  310/ 23/ 29 1021.0R   2/ 3
COVE POINT MD    1400   23     320/ 15/ 23 1020.8R
SOLOMONS ISLAND  1400   25 40  270/ 14/ 25   N/A
BISHOPS HEAD MD  1400   25 32  300/ 18/ 26 1019.3R
PINEY POINT MD   1400          320/ 27/ 29   N/A
POTOMAC MD       1500   26 39  300/ 17/ 25 1019.6R   2/ 3
CAMBRIDGE MD     1400   24 38  260/ 14/ 18 1019.0R
LEWISETTA VA     1400   24 38  310/ 14/ 17 1020.5R
RAPPAHANNOCK LGT 1400          280/ 19/ 22 1020.5R
STINGRAY PT      1500   27 40  300/ 16/ 21 1020.7R   2/ 3
YORK RVR RNG VA  1400   26     310/ 21/ 24 1020.2R
YORKTOWN VA      1400   25 41  280/ 15/ 19 1020.9R
JAMESTOWN VA     1500   26 42  280/ 17/ 23   N/A     1/ 2
DOMINION TERM VA 1400   25     310/ 17/ 22 1021.2R
KIPTOPEKE VA     1400      40  290/ 18/ 22   N/A
CHES BAY BRIDGE  1400   26 41  260/ 20/ 24 1020.7R
CAPE HENRY VA    1400   25     270/ 19/ 23   N/A
WILLOUBY STN VA  1400   25     280/ 19/ 24 1021.8R
CAPE HENRY BUOY  1428      43                N/A     4/ 5
1ST LANDING BUOY 1500      41                N/A     3/ 3
CAPE CHARLES BUO 1426      43                N/A     4/ 5   2/12
OFFSHORE WE BUOY 1421      46                N/A     5/ 5   2/12
DUCK PIER NC     1400   27     300/ 19/ 26 1020.5S
44100 DUCK FRF   1424      46                N/A     4/ 6   2/11
44056 DUCK FRF   1411      44                N/A     3/13   2/13
OREGON INLET NC  1400   29 41  290/ 12/ 18 1021.1R
HATTERAS NC      1400   30 45  310/ 22/ 27 1020.7R
$$



USA.gov is the U.S. government's official web portal to all federal, state and local government web resources and services.